FW4090 Weather Reports


time (UTC)temp
C
wind
direction
speed
KPH
gust
KPH
rain 1hr
cm
rain 24hr
cm
rain mn
cm
humidity
%
barometer
mb
20260503021400 10 354 3.2 11.3 0.23 1.24 0.71 96 1008.6
20260503015901 11 338 3.2 8.0 0.28 1.22 0.69 96 1008.7
20260503014358 11 352 1.6 8.0 0.25 1.17 0.66 96 1008.9
20260503013550 11 39 3.2 12.9 0.23 1.09 0.58 96 1009.1
20260503011358 11 16 1.6 8.0 0.20 0.99 0.46 96 1009.2
20260503005859 11 63 1.6 6.4 0.18 0.94 0.41 95 1009.2
20260503004400 11 33 3.2 9.7 0.23 0.91 0.38 95 1009.4
20260503002858 11 10 3.2 8.0 0.23 0.89 0.33 95 1009.5
20260503001358 11 13 1.6 6.4 0.20 0.79 0.28 95 1009.6
20260502235859 11 51 0.0 3.2 0.23 0.76 0.23 95 1009.7
20260502234358 11 55 1.6 4.8 0.25 0.71 0.15 95 1009.8
20260502232855 11 50 0.0 3.2 0.30 0.66 0.13 95 1009.8
20260502232744 11 57 1.6 4.8 0.28 0.61 0.05 95 1009.9
20260502231235 11 70 1.6 4.8 0.23 0.51 0.51 94 1010.0
20260502224351 11 77 1.6 4.8 0.20 0.43 0.43 94 1010.0
20260502222850 11 81 1.6 4.8 0.15 0.36 0.36 94 1010.0
20260502221348 11 54 0.0 3.2 0.18 0.33 0.33 94 1010.0
20260502220541 12 60 0.0 1.6 0.15 0.28 0.28 94 1010.0
20260502214345 12 103 0.0 1.6 0.15 0.23 0.23 93 1010.1
20260502213539 12 111 0.0 1.6 0.13 0.20 0.20 93 1010.3
20260502211345 12 112 0.0 1.6 0.08 0.15 0.15 93 1010.4
20260502210548 12 112 0.0 1.6 0.08 0.13 0.13 92 1010.6
20260502204340 12 112 0.0 1.6 0.05 0.10 0.10 92 1010.6
20260502204225 12 112 0.0 1.6 0.05 0.08 0.08 92 1010.7
20260502201340 12 112 0.0 1.6 0.05 0.05 0.05 91 1010.6
20260502195840 12 79 0.0 1.6 0.05 0.05 0.05 91 1010.7
20260502194339 12 74 0.0 3.2 0.05 0.05 0.05 90 1010.8
20260502192836 12 66 1.6 4.8 0.03 0.03 0.03 89 1010.6
20260502191338 12 56 1.6 4.8 0.03 0.03 0.03 88 1010.7
20260502185836 12 71 1.6 4.8 0.00 0.00 0.00 87 1010.8
20260502184336 12 66 3.2 6.4 0.00 0.00 0.00 86 1010.7
20260502182836 12 70 3.2 6.4 0.00 0.00 0.00 85 1010.7
20260502182034 12 66 3.2 9.7 0.00 0.00 0.00 83 1010.8
20260502181229 13 68 3.2 9.7 0.00 0.00 0.00 81 1010.9
20260502164331 13 54 4.8 16.1 0.00 0.03 0.00 77 1011.2
20260502162835 13 38 4.8 16.1 0.00 0.05 0.00 76 1011.3
20260502161334 13 37 6.4 17.7 0.00 0.05 0.00 74 1011.4
20260502160526 14 40 6.4 17.7 0.00 0.05 0.00 73 1011.6
20260502151324 14 28 8.0 19.3 0.00 0.13 0.00 73 1012.0
20260502122807 16 18 4.8 11.3 0.00 0.15 0.00 68 1013.8
20260502121913 15 294 3.2 11.3 0.00 0.18 0.00 68 1014.1
20260502121311 16 266 3.2 11.3 0.00 0.15 0.00 67 1014.1
20260502115005 15 307 4.8 8.0 0.00 0.18 0.00 72 1014.3
20260502112807 15 262 4.8 11.3 0.00 0.18 0.00 71 1014.5
20260502111308 15 306 3.2 11.3 0.00 0.18 0.00 71 1014.5
20260502105802 15 145 3.2 11.3 0.00 0.18 0.00 72 1014.6
20260502104301 14 113 4.8 9.7 0.00 0.18 0.00 73 1014.3
20260502102759 14 97 3.2 8.0 0.00 0.18 0.00 75 1014.5
20260502102005 13 110 3.2 8.0 0.00 0.18 0.00 76 1014.8
20260502071257 12 179 3.2 8.0 0.00 0.18 0.00 86 1015.6
20260502065757 11 126 3.2 6.4 0.00 0.18 0.00 89 1015.5
20260502064257 10 114 3.2 6.4 0.00 0.18 0.00 91 1015.3
20260502062757 10 112 3.2 8.0 0.00 0.18 0.00 92 1015.4
20260502061951 9 94 1.6 3.2 0.00 0.18 0.00 93 1015.5
20260502055757 8 96 1.6 1.6 0.00 0.18 0.00 94 1015.4
20260502054255 8 86 1.6 3.2 0.00 0.18 0.00 94 1015.4
20260502052755 8 84 1.6 3.2 0.00 0.18 0.00 93 1015.4
20260502051254 8 91 1.6 3.2 0.00 0.18 0.00 93 1015.4
20260502045752 7 85 1.6 1.6 0.00 0.18 0.00 93 1015.3
20260502044253 7 79 3.2 3.2 0.00 0.18 0.00 93 1015.4
20260502042750 8 85 1.6 3.2 0.00 0.18 0.00 92 1015.4
20260502041945 8 108 0.0 1.6 0.00 0.18 0.00 92 1015.4
20260502035745 8 321 0.0 1.6 0.00 0.18 0.00 92 1015.5
20260502034244 8 103 1.6 3.2 0.00 0.18 0.00 91 1015.5
20260502032742 9 90 0.0 1.6 0.00 0.18 0.00 89 1015.6
20260502031239 10 267 0.0 4.8 0.00 0.18 0.00 89 1015.7
20260502025738 10 281 1.6 4.8 0.00 0.18 0.00 89 1015.7
20260502024237 10 245 3.2 8.0 0.00 0.18 0.00 89 1015.8
20260502022734 10 114 0.0 6.4 0.00 0.18 0.00 89 1015.8